CZ-6A DEB

Satellite information

Favourite Embed

Satellite Type and Status

DEBRISIN ORBIT

Key statistics

Satellite CZ-6A DEB at a glance.

Uptime

442

Days in orbit

Revolutions

≈ 14.4

Per day

Orbit

LEO

Low Earth Orbit

Inclination

88.9

Latest

Satellite identification and parameters

Extended collection of information and parameters for CZ-6A DEB.

Object identification

Identified? True

Debris? True

Object name: CZ-6A DEB

International designator: 2024-140EX

Object number (NORAD): 60772

Object ID (CCSDS): 60772

Country: PEOPLES REPUBLIC OF CHINA (PRC)

Current information (Y/N): Y

RCS size: MEDIUM

Orbital parameters

Period: 100.007 minutes

Inclination: 88.9259 deg

SMA: 7136.972 km

Apoapsis: 810.112 km

Periapsis: 707.563 km

RAAN: 296.3275 deg

Eccentricy: 0.0071843

Argument of periapsis: 319.9239 deg

Mean anomaly: 39.6673 deg

Mean motion: 14.39898017 rev/day

Mean motion (dot): 0.00002994 rev/day2

B* drag term: 0.00092025 1/REarth

Two-line elements (TLE)

Creation date: Oct. 22, 2025, 12:16 a.m.

Reference frame: TEME

Reference center: EARTH

Epoch: Oct. 21, 2025, 7:42 p.m. UTC

TLE line 0: 0 CZ-6A DEB

TLE line 1: 1 60772U 24140EX 25294.82111369 .00002994 00000-0 92025-3 0 9991

TLE line 2: 2 60772 88.9259 296.3275 0071843 319.9239 39.6673 14.39898017 62640

Live tracking on map

Real-time ground track for satellite CZ-6A DEB.

In-orbit conjunctions

A list of the most updated potential collisions computed for object CZ-6A DEB.

Target Orbit TCA Probability of collision Miss distance Type
INTERCOSMOS 22 LEO 2025-02-23 21:32:12 0.0001578172 526.0 (m) PAYLOAD
FENGYUN 1C DEB SSO 2024-12-22 21:32:08 0.0002014651 638.0 (m) DEBRIS
DMSP 5D-2 F11 DEB SSO 2024-09-19 15:21:11 0.0003365833 564.0 (m) DEBRIS

Associated space launch

18 Low Earth Orbit communication satellites with Ku, Q and V band payloads for the G60 constellation operated by Shanghai Spacecom Satellite Technology (SSST) with funding backed by the Shanghai local government. Initial constellation will consist of 1296 satellites by 2027 with long term plans to expand it to 12000 satellites.

CZ-6A DEB was lifted into orbit during the mission ‘Long March 6A | G60 Polar Group 01’, on board a Long March 6A space rocket.

The launch took place on Aug. 6, 2024, 6:42 a.m. from Launch Complex 9A.

For more information about the launch, click the button.

Launch to space Long March 6A | G60 Polar Group 01
Long March 6A | G60 Polar Group 01

Agency: N/A

Status: Launch Successful

Launch date: Aug. 6, 2024, 6:42 a.m. UTC

Rocket: Long March 6A

Launch pad: Launch Complex 9A

Location: Taiyuan Satellite Launch Center, People's Republic of China

...

Latest news about this satellite

News about space launch
Brightness of first Chinese broadband constellation satellites alarms astronomers

The first satellites of a Chinese broadband constellation are significantly brighter than those of Western systems, posing a new challenge for astronomers.

News about space launch
Chinese rocket stage breaks up into cloud of more than 700 pieces of space debris

HELSINKI — A Chinese Long March 6A rocket’s upper stage has fragmented into a cloud of over 700 pieces of space debris, adding to concerns about long-term orbital safety. China […]

News about space launch
China's Thousand Sails Megaconstellation Kicks Off with Dangerous Debris Field

China's Thousand Sails Megaconstellation Kicks Off with Dangerous Debris Field


Newsletter sign-up

Weekly statistics, charts and insights to help you stay on top of the space industry.